Wind_Speed
13 14 15 15 15 15 15 15 15 16 16 16 16 16 16 16 16 16 16 16 16 17 17 17 17 16 16 16 17 16 16 16 16 16 17 17 17 17 17 18 18 18 17
14 14 15 16 16 16 16 17 16 16 16 16 16 17 17 18 18 18 17 17 17 18 18 18 18 18 17 17 16 16 16 16 16 16 17 17 18 17 17 17 17 17 16
14 15 15 15 16 16 17 17 17 17 17 17 17 17 17 18 18 19 18 18 18 18 19 19 19 18 17 17 17 17 18 18 18 17 17 17 17 18 18 18 17 17 17
14 14 15 15 16 16 17 17 17 18 17 17 17 17 17 17 18 18 18 18 19 19 19 18 18 18 18 17 17 18 18 18 18 18 18 18 17 17 17 18 18 17 17
15 15 15 15 16 16 17 17 18 18 18 18 18 18 18 17 18 18 19 18 18 19 19 19 19 19 18 18 18 17 17 17 17 17 17 17 17 16 16 17 17 17 17
15 15 15 16 16 16 17 17 18 18 18 18 18 18 18 18 18 18 18 19 18 18 19 20 19 19 19 19 18 18 19 18 18 18 18 18 17 16 17 17 17 17 17
14 15 16 16 16 17 17 18 18 18 18 18 18 19 19 19 19 19 19 19 19 19 19 20 20 20 20 20 19 19 20 19 18 18 18 18 18 17 18 18 18 17 17
14 14 14 15 16 16 17 18 18 19 19 18 18 19 19 19 20 20 20 20 20 20 20 19 20 21 21 21 21 21 20 20 19 19 18 18 18 18 18 18 18 17 17
14 14 14 15 15 16 16 17 18 19 19 19 19 19 19 19 19 20 20 19 20 20 20 20 21 21 21 22 21 22 21 20 20 20 20 19 19 19 19 19 19 19 19
14 14 14 14 14 15 16 16 17 18 18 19 19 19 20 19 20 19 19 20 19 20 20 21 21 21 22 22 22 22 22 21 21 20 20 20 20 20 20 20 20 20 20
14 14 14 14 14 15 15 15 16 16 17 18 19 20 20 20 20 20 19 20 20 20 20 21 21 22 22 23 22 23 23 23 22 21 21 21 22 22 22 21 21 22 21
14 14 14 14 15 15 15 16 16 16 16 17 18 19 20 20 21 21 21 21 21 20 20 20 21 22 22 22 22 23 23 24 24 22 21 22 22 22 22 23 23 23 23
15 15 15 15 15 15 16 16 16 17 17 18 18 19 19 20 21 22 22 22 22 21 21 21 21 22 22 22 22 23 24 24 25 24 23 23 23 23 24 24 24 24 24
15 16 16 16 16 16 16 16 16 17 18 18 18 18 19 20 20 21 22 23 23 22 22 22 22 22 22 23 23 23 24 25 25 26 25 24 24 24 25 24 24 24 24
16 16 16 17 16 17 17 17 17 18 18 18 19 19 19 20 21 21 22 23 23 23 23 23 23 23 24 24 24 24 25 26 26 26 27 27 27 26 26 26 25 24 25
18 18 18 18 18 18 18 18 18 18 18 18 19 19 20 21 21 21 22 23 23 24 24 25 25 25 25 26 26 26 26 27 27 28 28 28 28 28 27 27 26 26 25
19 20 20 20 20 20 19 19 19 19 19 19 20 21 21 22 22 22 23 24 24 24 25 25 26 26 27 27 27 27 27 28 28 28 28 28 28 28 28 28 27 27 26
21 21 21 21 21 21 21 21 21 20 20 20 21 21 22 22 22 23 23 24 24 24 24 24 25 26 27 27 27 28 28 29 29 29 29 29 29 29 29 28 29 28 28
22 22 22 22 22 22 22 22 22 22 22 21 21 22 22 22 22 22 23 23 24 24 24 25 25 25 26 27 27 28 28 28 28 29 29 30 30 29 29 29 29 29 29
22 23 23 23 23 23 23 23 23 23 23 22 22 22 22 22 23 23 24 24 25 25 26 26 26 25 25 26 27 27 28 28 28 29 29 29 30 30 30 30 29 29 29
23 23 23 24 24 24 24 24 24 24 24 23 23 23 23 24 24 25 25 26 26 26 27 27 26 26 26 26 27 28 28 29 29 29 29 29 30 31 31 31 30 30 30
24 24 24 25 24 24 25 25 25 24 24 24 24 24 24 25 26 26 27 27 28 28 27 27 27 27 28 28 28 28 28 29 29 30 29 29 29 30 30 31 31 31 30
25 25 25 25 25 25 25 25 25 25 25 25 25 26 26 27 27 27 28 28 28 28 28 28 28 29 29 29 29 29 29 29 29 29 29 29 29 29 30 30 31 31 31
26 26 26 26 26 26 26 25 26 25 25 26 26 27 28 28 28 29 29 29 29 28 29 29 30 30 30 30 31 31 30 30 30 30 30 30 30 30 30 29 30 31 31
27 27 27 27 27 26 26 26 26 26 26 27 27 27 28 29 29 30 30 29 29 29 31 32 32 32 32 32 32 31 31 31 30 30 30 30 30 30 30 31 30 30 30
27 27 28 28 27 27 27 28 28 27 28 28 28 28 28 29 29 30 30 30 30 31 32 32 33 33 33 33 32 32 32 32 31 31 31 31 31 31 31 31 31 31 31
Wind_Direction
270 269 265 262 261 262 260 259 259 260 261 260 259 257 256 257 256 254 253 256 257 256 256 257 254 251 252 255 256 257 257 260 262 263 261 258 256 255 254 255 255 256 259
273 272 267 266 264 263 262 261 261 261 260 260 260 259 259 258 258 255 254 254 254 254 256 257 255 254 254 256 256 257 258 260 264 265 262 259 256 254 254 254 253 255 256
272 271 271 269 267 265 263 262 262 262 262 262 261 262 261 261 259 258 257 256 255 254 254 255 254 255 256 256 257 259 261 262 264 264 262 260 258 255 255 255 254 255 255
273 272 271 270 268 266 265 264 262 263 263 263 262 262 262 263 261 258 256 256 256 255 254 253 253 254 253 256 258 259 260 261 263 263 262 261 261 258 257 255 254 254 255
274 274 273 272 272 269 266 265 263 263 264 264 264 263 262 262 262 261 258 256 255 255 256 253 252 253 253 255 257 259 260 260 262 262 262 261 261 259 257 254 254 254 254
275 275 275 275 275 272 268 266 264 264 265 266 265 264 261 261 261 261 262 260 257 255 255 253 253 253 253 255 256 258 258 259 260 261 262 261 259 256 255 252 253 253 253
279 278 277 277 276 273 270 267 265 265 265 267 266 264 262 261 261 263 263 261 258 257 256 254 253 253 254 255 257 259 259 257 258 259 261 259 258 257 254 252 253 254 254
283 282 283 281 277 275 271 268 266 264 264 264 265 265 264 263 262 263 262 261 260 259 256 254 253 253 255 255 255 256 256 256 256 259 261 259 258 256 257 256 256 256 257
288 286 285 282 280 278 276 272 267 264 262 262 263 264 265 264 263 263 262 262 262 260 256 253 251 252 254 255 256 256 256 255 257 259 260 261 259 258 258 258 257 258 258
288 287 286 285 284 282 280 276 271 267 263 263 264 265 264 263 262 262 260 261 262 260 258 255 252 252 254 255 255 254 254 255 257 259 259 257 256 257 258 259 259 258 258
287 287 287 287 286 285 283 280 275 270 265 264 265 265 264 263 262 262 261 261 260 260 260 256 254 255 255 254 254 254 255 256 259 260 259 257 256 257 258 259 260 260 260
287 288 288 287 286 287 285 281 276 271 267 267 268 267 267 264 263 263 263 263 263 261 261 259 258 257 257 257 256 256 257 257 258 260 261 260 258 258 259 259 260 260 261
286 286 286 289 288 287 284 281 277 274 270 270 271 270 269 267 264 262 263 264 266 264 264 262 261 259 258 258 259 259 258 258 259 260 260 260 260 260 260 261 261 262 262
286 287 287 288 285 284 283 281 277 277 276 275 273 271 270 268 265 264 264 264 264 265 266 264 263 263 262 261 262 261 261 260 260 260 260 261 261 262 261 261 262 263 263
287 288 290 288 285 284 284 281 280 280 277 274 273 271 270 269 267 266 265 264 264 264 266 266 265 263 264 264 265 265 263 262 261 262 261 261 262 262 261 261 261 262 263
287 287 288 287 286 286 285 284 283 282 279 276 274 272 270 270 269 267 266 265 265 266 266 266 266 265 264 265 265 265 265 264 263 262 263 262 261 260 260 260 259 260 262
287 287 286 286 287 286 285 284 284 282 280 276 274 273 272 271 269 268 268 267 267 267 267 266 267 267 265 264 263 264 264 265 264 263 262 261 260 259 259 259 258 258 259
286 286 285 286 286 285 283 283 282 282 280 277 275 273 271 271 270 269 269 269 268 269 269 268 267 268 267 266 265 265 266 266 265 264 262 260 260 259 259 259 258 258 259
284 285 285 285 286 285 283 283 282 281 280 278 276 275 273 271 270 269 269 269 269 270 271 270 270 269 267 267 266 267 268 267 266 264 262 260 260 260 259 259 259 259 260
284 285 285 286 286 285 284 282 282 282 281 279 278 276 274 272 272 271 270 270 270 271 271 271 271 269 268 268 268 269 269 269 267 265 263 262 260 259 258 258 259 259 258
284 284 284 284 285 285 284 282 282 282 282 281 278 276 274 273 273 272 272 271 272 272 272 273 272 270 268 269 270 270 270 269 267 266 265 262 260 259 258 258 257 258 258
284 284 283 284 284 284 284 284 282 282 282 281 279 276 275 274 274 274 273 272 272 272 273 273 273 271 271 270 270 271 271 269 268 267 265 263 261 259 258 257 257 257 258
283 282 283 284 284 284 284 284 282 281 281 280 279 277 276 275 275 275 275 273 273 272 272 273 272 273 272 271 271 271 271 270 268 266 264 261 261 260 259 258 257 258 258
282 282 282 283 283 284 284 284 282 281 281 280 280 280 278 277 276 276 276 275 273 271 272 273 273 273 272 271 271 271 270 269 267 266 264 262 260 260 259 259 258 257 258
282 281 282 283 283 283 283 283 283 281 281 280 281 281 280 278 277 276 276 275 274 273 273 273 274 274 274 272 271 271 269 268 267 266 265 263 260 259 258 259 259 259 260
283 282 282 283 283 282 282 283 283 281 282 281 281 281 280 280 280 278 276 275 275 274 275 275 275 275 273 272 271 271 270 268 266 264 263 262 260 259 259 258 258 258 259
Height
5850 5850 5850 5850 5849 5849 5849 5849 5849 5849 5849 5849 5849 5849 5850 5850 5850 5850 5850 5850 5851 5851 5851 5852 5852 5852 5853 5853 5854 5854 5854 5854 5854 5854 5854 5854 5855 5855 5856 5856 5856 5857 5858
5847 5847 5846 5846 5846 5846 5846 5846 5846 5846 5846 5846 5846 5846 5846 5846 5846 5846 5847 5847 5847 5848 5848 5848 5849 5849 5849 5850 5850 5851 5851 5851 5851 5851 5851 5851 5851 5852 5852 5852 5853 5854 5854
5844 5843 5843 5842 5842 5842 5842 5842 5842 5842 5842 5842 5842 5842 5843 5843 5843 5843 5843 5843 5844 5844 5844 5845 5845 5846 5846 5847 5847 5847 5847 5847 5847 5847 5848 5848 5848 5848 5849 5849 5849 5850 5851
5840 5840 5839 5838 5838 5838 5838 5838 5838 5838 5838 5838 5839 5839 5839 5839 5839 5839 5839 5839 5840 5840 5840 5841 5841 5842 5843 5843 5843 5844 5844 5844 5844 5844 5844 5844 5844 5844 5845 5845 5846 5847 5847
5836 5836 5835 5835 5834 5834 5833 5833 5834 5834 5834 5834 5834 5835 5835 5835 5835 5835 5835 5835 5836 5836 5836 5837 5837 5838 5839 5839 5840 5840 5840 5840 5840 5840 5840 5840 5840 5840 5840 5841 5842 5843 5844
5833 5832 5831 5831 5830 5829 5829 5829 5829 5829 5830 5830 5830 5830 5830 5831 5831 5831 5831 5831 5831 5832 5832 5833 5833 5834 5835 5835 5835 5835 5836 5836 5836 5836 5836 5836 5836 5837 5837 5837 5838 5839 5840
5829 5828 5827 5827 5826 5825 5824 5824 5825 5825 5825 5825 5825 5826 5826 5826 5826 5827 5827 5827 5827 5827 5828 5828 5828 5829 5830 5831 5831 5831 5831 5831 5832 5832 5832 5832 5832 5833 5833 5834 5834 5835 5836
5825 5824 5823 5823 5821 5821 5820 5820 5820 5820 5820 5820 5821 5821 5821 5822 5822 5822 5822 5822 5822 5823 5823 5823 5824 5824 5825 5826 5826 5827 5827 5827 5827 5827 5827 5827 5828 5829 5829 5830 5831 5831 5832
5822 5821 5820 5819 5817 5816 5816 5815 5815 5815 5815 5816 5816 5817 5817 5817 5817 5817 5817 5817 5818 5818 5818 5818 5819 5819 5820 5821 5821 5822 5822 5822 5822 5823 5823 5823 5824 5825 5825 5826 5826 5827 5828
5818 5817 5816 5815 5813 5812 5811 5810 5809 5810 5810 5811 5811 5811 5811 5811 5812 5812 5812 5812 5813 5813 5813 5813 5813 5814 5815 5815 5816 5817 5817 5817 5817 5818 5818 5819 5819 5820 5820 5821 5822 5822 5823
5815 5814 5812 5811 5810 5808 5807 5805 5805 5805 5805 5806 5806 5806 5806 5806 5806 5807 5807 5807 5807 5808 5808 5808 5808 5808 5809 5810 5810 5811 5811 5812 5812 5812 5813 5814 5814 5815 5815 5816 5817 5817 5818
5811 5810 5809 5807 5806 5804 5803 5802 5801 5801 5801 5801 5801 5801 5801 5801 5801 5802 5802 5802 5802 5802 5802 5802 5803 5803 5803 5804 5805 5805 5806 5806 5807 5807 5808 5808 5809 5810 5810 5811 5812 5812 5813
5808 5806 5805 5804 5802 5801 5799 5798 5797 5797 5796 5796 5796 5796 5796 5796 5796 5796 5797 5797 5797 5797 5797 5797 5797 5797 5798 5798 5799 5799 5800 5800 5801 5801 5802 5802 5803 5804 5805 5805 5806 5806 5807
5804 5802 5801 5800 5798 5797 5795 5794 5793 5793 5792 5792 5791 5791 5791 5791 5791 5791 5791 5791 5791 5792 5791 5792 5792 5791 5792 5792 5792 5793 5793 5794 5794 5795 5795 5796 5797 5798 5798 5799 5800 5800 5800
5800 5798 5797 5795 5794 5793 5791 5790 5789 5788 5787 5787 5786 5786 5786 5785 5785 5785 5785 5785 5786 5786 5786 5786 5786 5786 5786 5786 5786 5786 5787 5787 5787 5788 5789 5789 5790 5791 5792 5792 5793 5794 5794
5795 5794 5792 5791 5789 5788 5787 5786 5785 5784 5783 5782 5781 5781 5780 5780 5780 5779 5779 5779 5779 5779 5779 5779 5779 5779 5779 5779 5779 5779 5780 5780 5780 5781 5781 5782 5783 5784 5784 5786 5786 5787 5787
5790 5789 5788 5786 5785 5783 5782 5781 5780 5779 5777 5777 5776 5775 5775 5774 5773 5773 5773 5773 5773 5773 5772 5772 5772 5772 5772 5772 5772 5772 5772 5772 5773 5773 5774 5774 5775 5776 5777 5778 5779 5780 5781
5785 5784 5782 5781 5780 5778 5777 5775 5774 5773 5772 5771 5770 5769 5768 5768 5767 5767 5767 5767 5766 5766 5766 5765 5765 5764 5764 5764 5764 5764 5764 5764 5764 5765 5766 5766 5767 5768 5769 5771 5772 5773 5774
5779 5778 5777 5775 5774 5773 5771 5770 5768 5767 5766 5765 5764 5763 5762 5761 5761 5761 5760 5760 5760 5759 5759 5758 5758 5757 5756 5756 5756 5756 5756 5756 5756 5757 5757 5758 5759 5760 5761 5763 5764 5765 5766
5773 5772 5771 5769 5768 5767 5765 5764 5762 5761 5760 5759 5758 5756 5756 5755 5755 5754 5754 5753 5753 5752 5751 5751 5750 5749 5749 5748 5748 5748 5748 5748 5748 5748 5749 5750 5751 5752 5753 5755 5756 5758 5759
5767 5766 5764 5763 5761 5760 5759 5757 5756 5755 5753 5752 5751 5750 5749 5748 5748 5747 5747 5746 5745 5745 5744 5743 5742 5741 5741 5741 5741 5740 5740 5739 5739 5740 5740 5741 5742 5744 5745 5746 5748 5749 5750
5761 5759 5757 5756 5755 5753 5752 5750 5749 5748 5746 5745 5744 5743 5742 5741 5741 5740 5739 5738 5738 5737 5736 5735 5734 5734 5733 5733 5733 5732 5731 5731 5731 5732 5732 5733 5734 5735 5736 5738 5740 5741 5742
5754 5752 5750 5749 5747 5746 5745 5743 5741 5740 5739 5738 5737 5736 5735 5734 5733 5732 5731 5730 5729 5728 5728 5727 5727 5726 5725 5725 5724 5724 5723 5722 5723 5723 5723 5724 5725 5726 5728 5729 5731 5732 5734
5746 5745 5743 5742 5740 5739 5737 5736 5734 5733 5731 5730 5729 5728 5727 5725 5724 5724 5723 5722 5721 5720 5720 5719 5718 5717 5716 5716 5715 5715 5714 5714 5714 5714 5715 5716 5717 5718 5719 5720 5722 5723 5725
5739 5737 5736 5734 5733 5731 5729 5728 5727 5725 5724 5722 5721 5720 5718 5717 5716 5715 5714 5713 5712 5711 5710 5710 5709 5708 5707 5706 5705 5705 5705 5705 5705 5705 5706 5707 5708 5709 5710 5711 5713 5714 5716
5731 5729 5728 5726 5724 5723 5722 5720 5719 5717 5716 5714 5713 5711 5710 5709 5707 5705 5704 5703 5702 5701 5701 5700 5699 5698 5697 5696 5696 5695 5695 5695 5695 5696 5696 5697 5698 5700 5701 5702 5703 5705 5706